User: anonymous   Login
Location: Peebles
(55.6412°N, 3.1714°W)
Time: 07:04:24
(UTC+00:00)
Language:

Meteor 2-12 Rocket - Orbit

View from above orbital plane
View from above orbital plane
View from above satellite
View from above satellite

Ground track
Ground track

The orbit data is extracted from the following two-line orbital elements,

1 15517U 85013B   21336.81812868  .00000028  00000-0  11829-4 0  9998
2 15517  82.5376 223.7207 0013700 298.5983  61.3799 13.84900452860601
Epoch (UTC): 02 December 2021 19:38:06
Eccentricity: 0.0013700
inclination: 82.5376°
perigee height: 936 km
apogee height: 956 km
right ascension of ascending node: 223.7207°
argument of perigee: 298.5983°
revolutions per day: 13.84900452
mean anomaly at epoch: 61.3799°
orbit number at epoch: 86060

The dashed part of the orbit path shows where the satellite is in the earth's shadow,  

DLR